Location: Unspecified
(0.0000°N, 0.0000°E)
Time: 07:26:10
(UTC+00:00)

Transit 4A - Pass Details

Date: 01 June 2022
Orbit: 864 x 980 km, 66.8° (Epoch: 24 June)

Event Time Altitude Azimuth Distance (km) Brightness Sun altitude
Rises 23:15:14 0° 164° (SSE) 3,575 - -65.5°
Reaches altitude 10° 23:19:16 10° 138° (SE) 2,656 - -65.9°
Maximum altitude 23:22:08 13° 110° (ESE) 2,428 - -66.2°
Drops below altitude 10° 23:25:00 10° 82° (E) 2,686 - -66.4°
Sets 23:29:05 0° 57° (ENE) 3,648 - -66.8°
